EWG7DJ LIRP-EDDK

Flight info

Callsign EWG7DJ
Flight time N/A
Altitude 36000
Route BEROK DCT OSBUL DCT ABREG DCT LADOL T163 KOVAN T844 UMDAS/N0357F240 T844 ASKIK T840 GULKO
Aircraft A319/M-SDE3FGHIRWY/LB1

Departure

Time 2026-04-29 18:28
Airport Pisa International Airport (LIRP)

Arrival

Time N/A
Airport Cologne Bonn Airport (EDDK)
Time Latitude Longitude Altitude Speed Heading
2026-04-29 18:07 43.69758 10.40093 15 ft 0 kts
2026-04-29 18:20 43.69753 10.40092 16 ft 3 kts
2026-04-29 18:20 43.69727 10.40086 17 ft 4 kts 359°
2026-04-29 18:20 43.69704 10.40093 16 ft 4 kts 309°
2026-04-29 18:20 43.69700 10.40107 17 ft 0 kts 243°
2026-04-29 18:24 43.69697 10.40098 15 ft 3 kts 243°
2026-04-29 18:24 43.69677 10.40061 16 ft 7 kts 218°
2026-04-29 18:24 43.69623 10.40059 15 ft 9 kts 172°
2026-04-29 18:25 43.69548 10.40074 16 ft 11 kts 172°
2026-04-29 18:25 43.69471 10.40088 18 ft 11 kts 172°
2026-04-29 18:25 43.69424 10.40097 21 ft 5 kts 172°
2026-04-29 18:25 43.69382 10.40114 23 ft 8 kts 148°
2026-04-29 18:26 43.69342 10.40179 20 ft 7 kts 127°
2026-04-29 18:26 43.69325 10.40211 18 ft 0 kts 127°
2026-04-29 18:26 43.69317 10.40226 20 ft 6 kts 127°
2026-04-29 18:26 43.69287 10.40283 20 ft 8 kts 126°
2026-04-29 18:27 43.69239 10.40312 20 ft 9 kts 198°
2026-04-29 18:27 43.69121 10.40195 20 ft 48 kts 216°
2026-04-29 18:27 43.68659 10.39719 19 ft 114 kts 217°
2026-04-29 18:27 43.67880 10.38915 87 ft 157 kts 216°
2026-04-29 18:28 43.67008 10.38032 661 ft 155 kts 219°
2026-04-29 18:28 43.66148 10.37120 1225 ft 158 kts 218°
2026-04-29 18:28 43.65238 10.36145 1613 ft 175 kts 217°
2026-04-29 18:28 43.64214 10.35075 1990 ft 196 kts 217°
2026-04-29 18:29 43.63376 10.33495 2539 ft 212 kts 249°
2026-04-29 18:29 43.63200 10.32153 3041 ft 220 kts 270°
2026-04-29 18:29 43.63945 10.29494 4108 ft 230 kts 303°
2026-04-29 18:29 43.64919 10.27716 4978 ft 234 kts 307°
2026-04-29 18:30 43.65926 10.25937 5833 ft 237 kts 307°
2026-04-29 18:30 43.67061 10.24286 6681 ft 240 kts 328°
2026-04-29 18:30 43.68632 10.23570 7491 ft 241 kts
2026-04-29 18:30 43.70227 10.24116 8313 ft 244 kts 32°
2026-04-29 18:31 43.71603 10.25500 9183 ft 246 kts 37°
2026-04-29 18:31 43.72969 10.26956 10038 ft 250 kts 36°
2026-04-29 18:31 43.74392 10.28367 10824 ft 253 kts 27°
2026-04-29 18:31 43.76030 10.29389 11350 ft 270 kts 18°
2026-04-29 18:32 43.77868 10.30329 11708 ft 293 kts 18°
2026-04-29 18:32 43.82003 10.32473 12266 ft 341 kts 19°
2026-04-29 18:32 43.84264 10.33649 12834 ft 351 kts 18°
2026-04-29 18:33 43.86570 10.34814 13579 ft 355 kts 14°
2026-04-29 18:33 43.88989 10.35487 14299 ft 355 kts
2026-04-29 18:33 43.91460 10.35482 15008 ft 356 kts 353°
2026-04-29 18:33 43.93934 10.35107 15718 ft 359 kts 351°
2026-04-29 18:34 43.96422 10.34708 16443 ft 362 kts 351°
2026-04-29 18:34 43.98087 10.34459 16923 ft 364 kts 354°
2026-04-29 18:34 44.01506 10.34491 17870 ft 370 kts
2026-04-29 18:34 44.04092 10.34621 18538 ft 374 kts 360°
2026-04-29 18:35 44.06702 10.34738 19114 ft 377 kts 360°
2026-04-29 18:35 44.09335 10.34851 19725 ft 381 kts 359°
2026-04-29 18:35 44.11992 10.34961 20342 ft 383 kts 359°
2026-04-29 18:35 44.14668 10.35072 20950 ft 387 kts 359°
2026-04-29 18:36 44.17333 10.35103 21540 ft 389 kts 355°
2026-04-29 18:36 44.20039 10.34867 22115 ft 391 kts 353°
2026-04-29 18:36 44.22768 10.34618 22671 ft 395 kts 354°
2026-04-29 18:36 44.25519 10.34379 23236 ft 398 kts 353°
2026-04-29 18:37 44.28292 10.34138 23766 ft 401 kts 353°
2026-04-29 18:37 44.31089 10.33889 24217 ft 404 kts 353°
2026-04-29 18:37 44.33905 10.33632 24693 ft 407 kts 353°
2026-04-29 18:37 44.36733 10.33377 25163 ft 409 kts 353°
2026-04-29 18:38 44.39583 10.33124 25628 ft 412 kts 353°
2026-04-29 18:38 44.42451 10.32878 26086 ft 414 kts 353°
2026-04-29 18:38 44.45335 10.32630 26557 ft 416 kts 353°
2026-04-29 18:38 44.48229 10.32374 27005 ft 418 kts 353°
2026-04-29 18:39 44.51141 10.32112 27453 ft 420 kts 353°
2026-04-29 18:39 44.54068 10.31850 27900 ft 423 kts 353°
2026-04-29 18:39 44.57009 10.31583 28326 ft 425 kts 353°
2026-04-29 18:39 44.59971 10.31326 28741 ft 428 kts 353°
2026-04-29 18:40 44.62944 10.31063 29127 ft 430 kts 352°
2026-04-29 18:40 44.65933 10.30796 29521 ft 432 kts 353°
2026-04-29 18:40 44.68944 10.30528 29899 ft 434 kts 352°
2026-04-29 18:40 44.71965 10.30256 30246 ft 437 kts 352°
2026-04-29 18:41 44.81102 10.29352 31249 ft 438 kts 347°
2026-04-29 18:41 44.84050 10.28428 31716 ft 431 kts 339°
2026-04-29 18:42 44.86882 10.27099 32172 ft 428 kts 337°
2026-04-29 18:42 44.89693 10.25710 32630 ft 427 kts 337°
2026-04-29 18:42 44.92493 10.24336 33108 ft 425 kts 337°
2026-04-29 18:42 44.95283 10.22975 33587 ft 423 kts 336°
2026-04-29 18:43 44.98058 10.21616 34074 ft 421 kts 336°
2026-04-29 18:43 45.00820 10.20270 34503 ft 420 kts 337°
2026-04-29 18:43 45.03578 10.18924 34877 ft 419 kts 337°
2026-04-29 18:43 45.06330 10.17572 35245 ft 419 kts 337°
2026-04-29 18:44 45.09079 10.16222 35599 ft 418 kts 337°
2026-04-29 18:44 45.11831 10.14873 35945 ft 419 kts 337°
2026-04-29 18:44 45.14581 10.13520 36087 ft 418 kts 337°
2026-04-29 18:44 45.17325 10.12165 36087 ft 417 kts 337°
2026-04-29 18:45 45.22780 10.09476 36087 ft 414 kts 337°
2026-04-29 18:45 45.28228 10.06784 36081 ft 414 kts 337°
2026-04-29 18:46 45.33672 10.04099 36100 ft 414 kts 337°
2026-04-29 18:46 45.39103 10.01407 36081 ft 413 kts 337°
2026-04-29 18:47 45.44516 9.98702 36084 ft 413 kts 337°
2026-04-29 18:47 45.49941 9.96009 36088 ft 413 kts 337°
2026-04-29 18:48 45.55366 9.93312 36113 ft 413 kts 336°
2026-04-29 18:48 45.60791 9.90586 36106 ft 413 kts 337°
2026-04-29 18:49 45.66215 9.87873 36100 ft 413 kts 337°
2026-04-29 18:49 45.71634 9.85152 36112 ft 413 kts 337°
2026-04-29 18:50 45.77053 9.82429 36127 ft 412 kts 336°
2026-04-29 18:50 45.82459 9.79718 36118 ft 412 kts 336°
2026-04-29 18:51 45.87861 9.76971 36113 ft 412 kts 336°
2026-04-29 18:51 45.93233 9.74261 36119 ft 412 kts 336°
2026-04-29 18:52 45.98637 9.71517 36135 ft 412 kts 336°
2026-04-29 18:52 46.04043 9.68768 36131 ft 411 kts 336°
2026-04-29 18:53 46.09439 9.66023 36134 ft 411 kts 336°
2026-04-29 18:53 46.14827 9.63269 36134 ft 411 kts 336°
2026-04-29 18:54 46.19335 9.60955 36155 ft 410 kts 336°
2026-04-29 18:54 46.24712 9.58212 36126 ft 410 kts 336°
2026-04-29 18:55 46.30088 9.55467 36134 ft 411 kts 338°
2026-04-29 18:55 46.35702 9.53578 36140 ft 414 kts 343°